{"data":{"norad_id":54056,"intl_designator":"2022-136F","name":"STARLINK-5226","alt_names":[],"object_type":"PAYLOAD","status":"ACTIVE","operator":null,"country":"US","launch_date":"2022-10-20","launch_site_code":"AFETR","launch_vehicle":null,"mission":null,"orbit_class":"UNKNOWN","rcs_meters":null,"size_class":null,"mass_kg":null,"dimensions":null,"purposes":["comms"],"wikipedia_slug":null,"has_3d_model":false,"image_url":null,"decayed_at":null,"tle_current":{"epoch":"2026-09-20T11:16:09.667776Z","epoch_age_seconds":89136,"freshness":"FRESH","line1":"1 54056U 22136F   26263.46955634  .00000379  00000+0  21763-4 0  9996","line2":"2 54056  53.1612 179.6253 0001530  84.7428 275.3750 15.35401611216381","mean_motion":15.35401611,"eccentricity":0.000153,"inclination_deg":53.1612,"raan_deg":179.6253,"arg_perigee_deg":84.7428,"mean_anomaly_deg":275.375,"bstar":2.1763e-5,"rev_number":21638,"period_min":93.786537000058,"perigee_km":458.6816663867,"apogee_km":460.77405303377,"semimajor_km":6837.8648597102,"source":"CELESTRAK","updated_at":"2026-09-21T09:00:33.076748Z"}}}